Location: Casteau
(50.5142°N, 4.0161°E)
Time: 05:44:09
(UTC+00:00)

Terra - Pass Details

Date: 18 September 2020
Orbit: 701 x 703 km, 98.2° (Epoch: 22 October)

Event Time Altitude Azimuth Distance (km) Brightness Sun altitude
Exits shadow 21:58:06 32° 325° (NW) 1,213 3.5 -33.9°
Drops below altitude 10° 22:00:44 10° 339° (NNW) 2,183 5.2 -34.1°
Sets 22:03:03 0° 343° (NNW) 3,106 6.2 -34.3°
